www.pogodaiklimat.ru

Погода и климат >> Архив погоды >> Украина >> Запорожье


АРХИВ ПОГОДЫ в Запорожье

Время (UTC), дата Ветер
(напр.,м/с)
 
Видим.   Явления Облачность Т
(С)
Тd
(С)
f
(%)
Тe
(С)
Тes
(С)
Комфортность P
(гПа)
Po
(гПа)
Тmin
(С)
Tmax
(С)
R
(мм)
R24
(мм)
S
(см)
15 16.04 ЮЗ 5 10 км 9/0
[Ac trans Ci fib]
+17.2 +2.4 37 +17 +17 тепло 1021.3 1008.1
18 16.04 ЮЗ 4 10 км 8/0
[Ac trans Ci fib]
+14.3 +2.2 44 +13 +13 тепло 1021.3 1008.0 +20.0
21 16.04 ЮЗ 3 10 км 6/6 420 м
[Sc]
+11.3 +3.1 57 +10 +10 тепло 1021.4 1007.9
00 17.04 штиль 0 10 км ясно +9.0 +2.1 62 +9 +9 тепло 1021.5 1007.9
03 17.04 В 1 10 км 4/0
[Ci fib]
+6.5 +0.8 67 +6 +6 по сезону 1021.9 1008.2
06 17.04 ЮЗ 1 10 км 9/0
[Ci fib]
+13.8 +3.6 50 +14 +20 тепло 1022.2 1008.8 +6.4
09 17.04 Ю 3 10 км 9/0
[Ci fib]
+18.2 +2.1 34 +18 +28 тепло 1021.8 1008.6
12 17.04 Ю 3 10 км 9/0
[Ac trans]
+19.2 +4.9 39 +20 +24 тепло 1021.1 1008.0
15 17.04 Ю 2 10 км 9/0
[Ac trans]
+19.2 +7.0 45 +20 +21 тепло 1020.4 1007.3
18 17.04 Ю 2 10 км 9/0
[Ac trans]
+16.4 +6.0 50 +17 +17 тепло 1020.9 1007.7 +20.1
21 17.04 Ю 2 10 км 9/0
[Ac und]
+13.0 +4.9 58 +12 +12 тепло 1021.2 1007.8
00 18.04 Ю 2 10 км ясно +11.2 +4.0 61 +10 +10 тепло 1021.1 1007.6
03 18.04 Ю 3 10 км 4/0
[Ac trans]
+9.5 +2.6 62 +7 +7 по сезону 1020.4 1006.9
06 18.04 Ю 4 10 км 8/0
[Ac trans]
+13.8 +4.7 54 +13 +15 тепло 1019.8 1006.5 +9.3
09 18.04 ЮЗ 3 10 км 9/0
[Ac trans]
+18.1 +6.9 48 +18 +24 тепло 1018.9 1005.8
12 18.04 З 4 10 км слабый ливневой дождь 9/9 500 м
[Cb cap]
+14.9 +12.9 88 +14 +14 по сезону 1018.7 1005.5
15 18.04 З 3 10 км {ливн. осадки} 6/5 1000 м
[Cb calv Ci fib]
+15.6 +13.8 89 +15 +16 тепло 1017.4 1004.2
18 18.04 З 4 10 км {ливн. осадки} 6/0
[Ci fib]
+12.0 +6.9 71 +10 +10 по сезону 1017.9 1004.5 +18.4 1
21 18.04 З 5 10 км 6/0
[Ac trans]
+11.1 +5.4 68 +9 +9 по сезону 1016.9 1003.5
00 19.04 З 3 10 км ясно +7.8 +4.6 80 +5 +5 по сезону 1016.1 1002.5
03 19.04 З 3 10 км 6/0
[Ci fib]
+7.3 +4.9 85 +4 +4 по сезону 1013.5 999.9
06 19.04 З 7 10 км {дождь} 9/0
[Ac und]
+11.6 +6.5 71 +9 +9 по сезону 1011.8 998.5 +6.3 0.0
09 19.04 З 10 10 км {дождь} 9/9 660 м
[Cb calv]
+14.7 +6.5 58 +12 +12 по сезону 1009.2 996.1
12 19.04 З 7 5000 м слабый ливневой дождь 9/9 700 м
[Cb cap]
+10.5 +9.3 92 +7 +7 холодно 1008.7 995.4
15 19.04 З 7 7000 м слабый ливневой дождь 9/9 330 м
[Cb cap]
+10.2 +9.4 95 +6 +6 холодно 1007.6 994.3
18 19.04 СЗ 7 10 км в посл. час ливневой дождь 9/9 1000 м
[Cb calv]
+8.9 +7.4 90 +5 +5 прохладно 1007.8 994.4 +14.9 4
21 19.04 СЗ 6 10 км в посл. час ливневой дождь 9/8 500 м
[Cb calv]
+8.6 +7.8 95 +4 +4 прохладно 1007.4 994.0
00 20.04 СЗ 6 10 км в посл. час ливневой дождь 9/6 700 м
[Sc Ac trans]
+8.0 +6.9 93 +4 +4 по сезону 1007.6 994.2
03 20.04 СЗ 6 10 км слабый ливневой дождь 9/9 800 м
[Cb cap]
+8.2 +6.8 91 +4 +4 по сезону 1008.0 994.6
06 20.04 СЗ 8 10 км слабый ливневой дождь 9/9 1000 м
[Cb cap]
+9.3 +6.7 84 +5 +5 прохладно 1009.1 995.7 +7.7 0.7
09 20.04 СЗ 8 10 км 8/8 900 м
[Sc]
+13.5 +7.1 65 +11 +11 по сезону 1010.0 996.8
12 20.04 СЗ 10 10 км 9/9 1000 м
[Cb calv]
+15.7 +4.7 48 +14 +14 по сезону 1011.1 998.0
15 20.04 С 9 10 км 8/8 1080 м
[Sc]
+16.7 +2.0 37 +15 +15 тепло 1012.1 999.0
18 20.04 СЗ 3 10 км 6/0
[Ac trans]
+11.2 +2.8 56 +10 +10 по сезону 1014.7 1001.3 +18.0
21 20.04 СЗ 4 10 км 5/0
[Ac trans]
+7.6 +2.5 70 +4 +4 прохладно 1016.2 1002.6
00 21.04 З 3 10 км ясно +5.4 +2.1 79 +2 +2 прохладно 1016.4 1002.7
03 21.04 З 3 10 км ясно +2.7 +1.2 90 -1 -1 очень
холодно
1017.0 1003.2
06 21.04 СЗ 2 10 км ясно +13.3 +3.9 53 +13 +19 тепло 1016.6 1003.3 +2.3
09 21.04 З 4 10 км ясно +17.7 +2.1 35 +17 +27 тепло 1015.2 1002.1
12 21.04 З 6 10 км ясно +20.1 +2.5 31 +20 +25 тепло 1012.7 999.7
15 21.04 ЮЗ 8 10 км ясно +18.9 +3.1 35 +18 +19 тепло 1009.6 996.6
18 21.04 ЮЗ 4 10 км ясно +15.7 +5.0 49 +15 +15 тепло 1008.3 995.2 +20.3
21 21.04 ЮЗ 8 10 км 4/0
[Ac trans]
+13.4 +5.3 58 +11 +11 тепло 1006.4 993.2
00 22.04 ЮЗ 5 10 км ясно +12.6 +6.2 65 +11 +11 тепло 1004.6 991.4
03 22.04 З 4 10 км ясно +10.8 +5.3 69 +9 +9 по сезону 1005.5 992.2
06 22.04 СЗ 7 10 км ясно +15.4 +3.2 44 +14 +16 тепло 1007.3 994.2 +10.7
09 22.04 З 10 10 км ясно +17.9 +1.4 33 +17 +17 тепло 1007.6 994.6
12 22.04 СЗ 9 10 км ясно +18.7 +0.3 29 +18 +19 тепло 1007.1 994.1
15 22.04 СЗ 7 10 км 5/5 1500 м
[Sc]
+16.9 +0.1 32 +16 +16 тепло 1007.8 994.8
18 22.04 З 2 10 км 4/0
[Ac trans]
+11.0 +0.1 47 +10 +10 по сезону 1009.4 996.1 +19.0
21 22.04 З 2 10 км 4/0
[Ac trans]
+8.8 +0.7 57 +7 +7 по сезону 1010.8 997.3
00 23.04 СЗ 3 10 км 3/0
[Ac trans]
+7.1 +2.0 70 +4 +4 по сезону 1011.4 997.9
03 23.04 СЗ 3 10 км 6/0
[Ac trans]
+8.0 +3.1 71 +5 +5 по сезону 1011.5 998.0
06 23.04 СЗ 5 10 км 3/0
[Ac trans]
+12.4 +3.9 56 +10 +13 по сезону 1012.5 999.2 +6.3
09 23.04 СЗ 6 10 км 6/6 1500 м
[Cu med, cong]
+14.8 +2.7 44 +13 +16 по сезону 1013.1 999.9
12 23.04 СЗ 6 10 км 6/6 1500 м
[Cu hum]
+16.4 +1.3 36 +15 +17 по сезону 1013.3 1000.2

 

Местоположение метеостанции Запорожье (Запорожская область, Украина): широта 47.80 долгота 35.02 высота над уровнем моря 112 м.

В архиве по умолчанию представлена погода в Запорожье за последнюю неделю. Архивные данные за месяц целиком и за предыдущие месяцы, начиная с января 2011 года, Вы можете получить, выбрав интересующий диапазон дат из раскрывающегося списка и нажав кнопку "Ввод!".


*Определитесь, кто Вы:
робот инопланетянин человек

Внимание! Время в таблицах - всемирное. Для получения местного времени необходимо прибавить поправку, которая в Запорожье равна 2 ч.

Смотрите также архив погоды в соседних городах и на ближайших метеорологических станциях:

Погода в Никополе (Днепропетровская область, Украина) (49 км)
Погода в Пришибе (Запорожская область, Украина) (63 км)
Погода в Лошкарёвке (Днепропетровская область, Украина) (65 км)
Погода в Синельниково (Днепропетровская область, Украина) (76 км)
Погода в Днепре (Днепропетровская область, Украина) (89 км)
Погода в Гуляйполе (Запорожская область, Украина) (93 км)
Погода в Чаплино (Днепропетровская область, Украина) (97 км)
Погода в Павлограде (Днепропетровская область, Украина) (101 км)
Погода в Комиссаровке (Днепропетровская область, Украина) (109 км)
Погода в Мелитополе (Запорожская область, Украина) (111 км)

Пояснения к столбцам:

Ветер - указаны скорость ветра в м/с - средняя за 10 мин, порывы в срок и между сроками (в фигурных скобках) и направление, откуда дует ветер: С - северный, СВ - северо-восточный, В - восточный, ЮВ - юго-восточный, Ю - южный, ЮЗ - юго-западный, З - западный, СЗ - северо-западный.
Видимость - горизонтальная дальность видимости в метрах или километрах. При видимости от 1 до 10 км при отсутствии осадков обычно наблюдается дымка, при ухудшении видимости до 1 км и менее - туман. В сухую погоду видимость может ухудшаться дымом, пылью или мглою.
Явления - указаны атмосферные явления, наблюдавшиеся в срок или в последний час перед сроком; фигурными скобками обозначены явления, наблюдавшиеся между сроками (за 1-3 часа до срока); квадратными скобками обозначены град или гололедные отложения с указанием их диаметра в мм.
Облачность - указаны через наклонную черту общая и нижняя облачность в баллах и высота нижней границы облаков в метрах; квадратными скобками обозначены формы облаков: Ci - перистые, Cs - перисто-слоистые, Cc - перисто-кучевые, Ac - высококучевые, As - высокослоистые, Sc - слоисто-кучевые, Ns - слоисто-дождевые, Cu - кучевые, Cb - кучево-дождевые. Подробнее классификацию облаков см. в Атласе облаков (PDF).
T - Температура воздуха - температура, измеренная на высоте 2 м над землей.
Td - Температура точки росы - температура, при понижении до которой содержащийся в воздухе водяной пар достигнет насыщения.
f - Относительная влажность воздуха - влажноcть воздуха, измеренная на высоте 2 м над землей.
Te - Эффективная температура - температура, которую ощущает одетый по сезону человек в тени. Характеристика душности погоды. При расчете учитывается влияние влажности воздуха и скорости ветра на теплоощущения человека.
Tes - Эффективная температура на солнце - температура, которую ощущает человек, с поправкой на солнечный нагрев. Характеристика знойности погоды. Зависит от высоты солнца над горизонтом, облачности и скорости ветра. Ночью, в пасмурную погоду, а также при ветре 12 м/с и более поправка равна нулю.
P - Атмосферное давление - приведенное к уровню моря атмосферное давление.
Po - Атмосферное давление - измеренное на уровне метеостанции атмосферное давление.
Tmin - Минимальная температура - минимум температуры воздуха на высоте 2 м над землей.
Tmax - Максимальная температура - максимум температуры воздуха на высоте 2 м над землей.
R - Количество осадков - Количество выпавших осадков за период времени, мм. При наведении курсора мыши на число - период времени, за который выпало указанное количество осадков.
R24 - Количество осадков - Количество выпавших осадков за 24 часа, мм.
S - Снежный покров - Высота снежного покрова, см. При наведении курсора мыши на число - состояние снежного покрова и степень покрытия местности в баллах.